sat.trackr.live / text

‹ back to catalog

UNKNOWN

NORAD 87557

UNKNOWN UNKNOWN UNKNOWN

§ Identity

Operator
Country
Launch date
Launch site
Launch vehicle
Mass (kg)
RCS (m²)

External: N2YO · Heavens-Above

§ Orbital elements

Epoch: 2026-09-15T22:33:56.898432Z

Period
108.27 min
Inclination
101.8510°
Eccentricity
0.0056234
Mean motion
13.29972203 rev/d
Perigee alt
1,104.6 km
Apogee alt
1,189.2 km
Semi-major
7,525.0 km
B*
8.0882e-3
RAAN
157.8684°
Arg perigee
104.8513°
Mean anomaly
255.8840°
Rev number
60,185

§ Raw data

UNKNOWN1 87557U          26258.94024188  .00003757  00000+0  80882-2 0  99902 87557 101.8510 157.8684 0056234 104.8513 255.8840 13.29972203601851

JSON: /api/v1/satellites/87557 · /tle

For live sub-satellite position, see the globe view (requires WebGL).

§ Visibility from observer

Set your observer location to see the next 7 days of passes ≥ 10°. The values pass through the URL so the page stays shareable.

No JS? Fill the form by hand. The geolocation button needs JavaScript.